When you browse on this site, cookies collect data to enhance your experience and personalize the content and advertising you see.
Visit our Privacy Policy to learn more. By continuing to use the site, you agree to this use of cookies and data.
  • In Spain
  • List of Countries
  • For 7 days
  • Water Temperature
  • Weather Map
  • Weather Widgets
  • user-avatar
    Login

    Hourly Weather Ngozi

    Today, 6 April, Monday

    Time Temperature Precipitation Wind Pressure Humidity
    00:00 +15°C° 0 mm 0 mps 618 mmHg 94%
    01:00 +15°C° 0 mm 0 mps 618 mmHg 94%
    02:00 +15°C° 0 mm 0 mps 618 mmHg 95%
    03:00 +15°C° 0 mm 0 mps 618 mmHg 95%
    04:00 +15°C° 0 mm 0 mps 618 mmHg 94%
    05:00 +14°C° 0 mm 0 mps 618 mmHg 94%
    06:00 +16°C° 0 mm 0 mps 618 mmHg 92%
    07:00 +17°C° 0 mm 0 mps 619 mmHg 91%
    08:00 +18°C° 0 mm 0 mps 620 mmHg 89%
    09:00 +20°C° 0.7 mm 0 mps 621 mmHg 83%
    10:00 +21°C° 0.7 mm 0 mps 621 mmHg 78%
    11:00 +25°C° 0.7 mm 1 mps 621 mmHg 73%
    12:00 +25°C° 0.8 mm 1 mps 621 mmHg 72%
    13:00 +25°C° 0.8 mm 1 mps 620 mmHg 72%
    14:00 +25°C° 0.8 mm 1 mps 619 mmHg 71%
    15:00 +24°C° 1 mm 1 mps 619 mmHg 77%
    16:00 +24°C° 1 mm 1 mps 618 mmHg 82%
    17:00 +23°C° 1 mm 1 mps 618 mmHg 87%
    18:00 +19°C° 0.6 mm 0 mps 618 mmHg 89%
    19:00 +18°C° 0.6 mm 0 mps 618 mmHg 90%
    20:00 +16°C° 0.6 mm 0 mps 618 mmHg 92%
    21:00 +16°C° 0.1 mm 0 mps 618 mmHg 92%
    22:00 +15°C° 0.1 mm 0 mps 618 mmHg 92%
    23:00 +15°C° 0.1 mm 0 mps 618 mmHg 93%

    Tomorrow, 7 April, Tuesday

    Time Temperature Precipitation Wind Pressure Humidity
    00:00 +15°C° 0.2 mm 0 mps 618 mmHg 93%
    01:00 +15°C° 0.2 mm 0 mps 617 mmHg 93%
    02:00 +14°C° 0.2 mm 0 mps 617 mmHg 94%
    03:00 +14°C° 0 mm 0 mps 617 mmHg 94%
    04:00 +14°C° 0 mm 0 mps 617 mmHg 93%
    05:00 +14°C° 0 mm 0 mps 617 mmHg 93%
    06:00 +15°C° 0 mm 0 mps 618 mmHg 92%
    07:00 +17°C° 0 mm 0 mps 619 mmHg 90%
    08:00 +18°C° 0 mm 0 mps 620 mmHg 88%
    09:00 +20°C° 0.6 mm 0 mps 620 mmHg 83%
    10:00 +21°C° 0.6 mm 0 mps 621 mmHg 78%
    11:00 +23°C° 0.6 mm 0 mps 621 mmHg 73%
    12:00 +25°C° 0.3 mm 1 mps 620 mmHg 69%
    13:00 +26°C° 0.3 mm 1 mps 620 mmHg 64%
    14:00 +26°C° 0.3 mm 2 mps 619 mmHg 60%
    15:00 +25°C° 0.7 mm 1 mps 619 mmHg 68%
    16:00 +24°C° 0.7 mm 1 mps 618 mmHg 77%
    17:00 +21°C° 0.7 mm 0 mps 618 mmHg 86%
    18:00 +20°C° 0.7 mm 0 mps 618 mmHg 87%
    19:00 +18°C° 0.7 mm 0 mps 618 mmHg 88%
    20:00 +16°C° 0.7 mm 0 mps 618 mmHg 90%
    21:00 +16°C° 0 mm 0 mps 618 mmHg 90%
    22:00 +16°C° 0 mm 0 mps 618 mmHg 91%
    23:00 +15°C° 0 mm 0 mps 618 mmHg 91%

    Day after tomorrow, 8 April, Wednesday

    Time Temperature Precipitation Wind Pressure Humidity
    00:00 +15°C° 0 mm 0 mps 618 mmHg 92%
    01:00 +15°C° 0 mm 0 mps 617 mmHg 92%
    02:00 +15°C° 0 mm 0 mps 617 mmHg 92%
    03:00 +16°C° 0 mm 0 mps 617 mmHg 92%
    04:00 +16°C° 0 mm 0 mps 617 mmHg 92%
    05:00 +16°C° 0 mm 0 mps 617 mmHg 92%
    06:00 +16°C° 0.1 mm 0 mps 618 mmHg 93%
    07:00 +16°C° 0.1 mm 0 mps 619 mmHg 93%
    08:00 +16°C° 0.1 mm 0 mps 619 mmHg 93%
    09:00 +18°C° 0.6 mm 0 mps 620 mmHg 91%
    10:00 +19°C° 0.6 mm 0 mps 620 mmHg 89%
    11:00 +20°C° 0.6 mm 0 mps 620 mmHg 87%
    12:00 +20°C° 1.3 mm 0 mps 620 mmHg 85%
    13:00 +23°C° 1.3 mm 1 mps 619 mmHg 84%
    14:00 +23°C° 1.3 mm 1 mps 619 mmHg 82%
    15:00 +22°C° 1 mm 1 mps 618 mmHg 86%
    16:00 +21°C° 1 mm 1 mps 618 mmHg 90%
    17:00 +20°C° 1 mm 1 mps 618 mmHg 94%
    18:00 +19°C° 0.7 mm 1 mps 618 mmHg 94%
    19:00 +17°C° 0.7 mm 0 mps 618 mmHg 95%
    20:00 +16°C° 0.7 mm 0 mps 618 mmHg 95%
    21:00 +16°C° 0.5 mm 0 mps 618 mmHg 96%
    22:00 +18°C° 0.5 mm 1 mps 618 mmHg 96%
    23:00 +18°C° 0.5 mm 1 mps 618 mmHg 96%

    9 April, Thursday

    Time Temperature Precipitation Wind Pressure Humidity
    00:00 +18°C° 0.1 mm 1 mps 618 mmHg 96%
    01:00 +16°C° 0.1 mm 1 mps 618 mmHg 96%
    02:00 +16°C° 0.1 mm 1 mps 618 mmHg 96%
    03:00 +15°C° 0 mm 0 mps 618 mmHg 97%
    04:00 +14°C° 0 mm 0 mps 618 mmHg 97%
    05:00 +14°C° 0 mm 0 mps 618 mmHg 97%
    06:00 +15°C° 0 mm 0 mps 619 mmHg 95%
    07:00 +17°C° 0 mm 0 mps 619 mmHg 93%
    08:00 +18°C° 0 mm 0 mps 620 mmHg 91%
    09:00 +19°C° 0.7 mm 0 mps 620 mmHg 87%
    10:00 +22°C° 0.7 mm 1 mps 621 mmHg 84%
    11:00 +23°C° 0.7 mm 1 mps 621 mmHg 81%
    12:00 +23°C° 1.4 mm 1 mps 620 mmHg 81%
    13:00 +24°C° 1.4 mm 1 mps 619 mmHg 81%
    14:00 +24°C° 1.4 mm 1 mps 619 mmHg 81%
    15:00 +21°C° 1.2 mm 0 mps 618 mmHg 85%
    16:00 +20°C° 1.2 mm 0 mps 618 mmHg 89%
    17:00 +20°C° 1.2 mm 0 mps 618 mmHg 92%
    18:00 +18°C° 0.3 mm 0 mps 618 mmHg 93%
    19:00 +17°C° 0.3 mm 0 mps 617 mmHg 93%
    20:00 +15°C° 0.3 mm 0 mps 617 mmHg 94%
    21:00 +15°C° 0 mm 0 mps 617 mmHg 94%
    22:00 +15°C° 0 mm 0 mps 617 mmHg 94%
    23:00 +14°C° 0 mm 0 mps 617 mmHg 95%

    10 April, Friday

    Time Temperature Precipitation Wind Pressure Humidity
    00:00 +14°C° 0.1 mm 0 mps 617 mmHg 95%
    01:00 +14°C° 0.1 mm 0 mps 617 mmHg 95%
    02:00 +14°C° 0.1 mm 0 mps 617 mmHg 95%
    03:00 +14°C° 0 mm 0 mps 617 mmHg 96%
    04:00 +14°C° 0 mm 0 mps 617 mmHg 96%
    05:00 +14°C° 0 mm 0 mps 617 mmHg 96%
    06:00 +15°C° 0.1 mm 0 mps 618 mmHg 95%
    07:00 +18°C° 0.1 mm 1 mps 619 mmHg 94%
    08:00 +19°C° 0.1 mm 1 mps 620 mmHg 93%
    09:00 +19°C° 0.5 mm 1 mps 620 mmHg 93%
    10:00 +19°C° 0.5 mm 1 mps 619 mmHg 93%
    11:00 +19°C° 0.5 mm 1 mps 619 mmHg 93%
    12:00 +20°C° 1.1 mm 1 mps 619 mmHg 91%
    13:00 +21°C° 1.1 mm 1 mps 618 mmHg 89%
    14:00 +22°C° 1.1 mm 1 mps 618 mmHg 87%
    15:00 +22°C° 1.1 mm 1 mps 618 mmHg 88%
    16:00 +22°C° 1.1 mm 1 mps 618 mmHg 90%
    17:00 +21°C° 1.1 mm 1 mps 617 mmHg 92%
    18:00 +20°C° 0.6 mm 1 mps 617 mmHg 93%
    19:00 +17°C° 0.6 mm 0 mps 617 mmHg 95%
    20:00 +15°C° 0.6 mm 0 mps 617 mmHg 96%
    21:00 +15°C° 0.2 mm 0 mps 617 mmHg 96%
    22:00 +15°C° 0.2 mm 0 mps 617 mmHg 97%
    23:00 +14°C° 0.2 mm 0 mps 618 mmHg 97%

    11 April, Saturday

    Time Temperature Precipitation Wind Pressure Humidity
    00:00 +15°C° 0.1 mm 0 mps 617 mmHg 96%
    01:00 +15°C° 0.1 mm 0 mps 617 mmHg 96%
    02:00 +15°C° 0.1 mm 0 mps 617 mmHg 96%
    03:00 +15°C° 0 mm 0 mps 617 mmHg 96%
    04:00 +14°C° 0 mm 0 mps 617 mmHg 96%
    05:00 +14°C° 0 mm 0 mps 617 mmHg 96%
    06:00 +15°C° 0 mm 0 mps 618 mmHg 93%
    07:00 +16°C° 0 mm 0 mps 619 mmHg 91%
    08:00 +18°C° 0 mm 0 mps 620 mmHg 89%
    09:00 +21°C° 0.5 mm 1 mps 620 mmHg 87%
    10:00 +22°C° 0.5 mm 1 mps 620 mmHg 85%
    11:00 +21°C° 0.5 mm 2 mps 620 mmHg 83%
    12:00 +21°C° 1.7 mm 2 mps 619 mmHg 85%
    13:00 +22°C° 1.7 mm 1 mps 618 mmHg 86%
    14:00 +23°C° 1.7 mm 1 mps 618 mmHg 87%
    15:00 +22°C° 0.9 mm 1 mps 617 mmHg 89%
    16:00 +22°C° 0.9 mm 1 mps 617 mmHg 90%
    17:00 +20°C° 0.9 mm 0 mps 617 mmHg 91%
    18:00 +18°C° 0.5 mm 0 mps 617 mmHg 93%
    19:00 +17°C° 0.5 mm 0 mps 617 mmHg 94%
    20:00 +16°C° 0.5 mm 0 mps 617 mmHg 96%
    21:00 +15°C° 0.6 mm 0 mps 617 mmHg 96%
    22:00 +15°C° 0.6 mm 0 mps 617 mmHg 97%
    23:00 +15°C° 0.6 mm 0 mps 618 mmHg 97%
    Show more